Wind_Speed
12 12 12 12 12 12 13 13 13 13 14 14 13 13 13 12 12 12 12 11 10 9 9 8 8 8 9 9 9 8 9 9 9 10 10 10 10 9 9 10 10 10 10
11 12 12 12 12 12 12 12 12 13 14 14 13 13 13 13 13 12 12 11 10 10 10 10 9 9 9 9 9 8 9 9 10 10 10 9 9 9 9 9 10 10 10
12 12 13 12 12 12 12 12 12 12 13 14 13 13 13 13 12 12 12 12 11 11 11 11 10 10 10 9 9 9 10 10 10 10 10 9 8 9 9 9 9 9 9
13 13 13 13 13 13 13 12 12 12 12 12 13 13 14 13 13 12 12 12 12 12 12 12 11 11 10 10 9 10 10 10 10 10 10 9 8 7 8 9 9 9 8
12 12 13 13 13 13 13 13 12 12 12 12 13 13 13 14 14 13 13 13 13 12 12 12 12 11 11 11 11 11 11 11 11 10 10 9 9 8 7 8 9 9 9
12 12 12 13 12 12 13 13 12 12 13 12 12 13 13 14 14 14 14 14 14 14 13 13 12 12 11 11 11 11 12 11 11 10 10 9 10 9 8 8 9 9 9
12 13 13 12 12 12 13 13 13 13 13 13 13 13 14 14 14 14 14 15 15 14 14 13 13 13 13 12 12 12 11 11 11 11 10 10 10 10 9 8 8 9 9
12 13 13 13 13 13 13 13 14 13 14 13 14 14 15 15 14 14 14 14 15 14 13 13 13 13 13 13 12 12 11 11 12 11 11 11 10 10 10 9 8 8 9
12 12 12 13 14 14 14 14 14 14 14 14 15 14 15 16 15 15 15 14 14 14 13 13 13 13 14 13 12 11 12 12 11 10 11 11 11 10 10 10 9 9 9
12 12 12 13 14 14 15 14 15 15 15 15 16 15 15 15 15 15 15 14 14 13 13 13 13 13 13 13 12 12 13 13 12 11 11 11 10 10 10 10 9 9 9
12 12 12 13 14 14 15 15 15 15 15 15 15 15 14 15 15 15 16 15 14 14 14 13 13 13 13 12 12 13 13 13 12 12 11 11 10 10 10 10 10 10 10
12 12 12 13 13 14 14 15 15 15 15 15 15 15 15 16 16 15 16 15 14 14 14 14 13 13 12 12 13 13 13 12 13 12 11 10 9 10 10 10 10 10 10
11 12 13 13 13 14 14 15 15 15 15 15 16 16 16 16 16 15 15 15 14 15 15 15 14 13 13 13 13 12 12 11 12 11 10 9 10 11 11 11 11 11 12
11 12 13 13 13 14 14 15 16 16 16 16 17 17 17 16 16 15 15 15 15 15 15 15 14 13 13 13 13 12 11 11 11 11 11 10 10 11 11 11 11 12 13
12 12 13 14 14 14 14 14 15 16 16 16 17 17 17 16 16 15 16 15 15 15 14 14 14 13 13 13 13 12 12 11 11 11 11 11 11 11 12 12 13 13 14
12 13 13 14 14 14 14 15 15 15 16 16 16 16 16 17 17 17 16 16 16 16 15 15 14 13 14 14 13 12 12 12 12 12 12 12 12 13 13 14 15 15 15
12 12 12 12 13 13 15 15 15 15 15 16 16 16 16 15 16 17 16 16 16 16 15 14 14 14 14 14 14 14 14 14 14 14 14 13 14 14 15 15 16 16 17
12 12 12 12 12 13 15 15 15 15 15 16 16 16 15 15 15 16 16 16 16 16 15 15 15 14 14 15 15 15 15 15 15 15 15 15 16 16 16 17 17 17 18
12 12 12 12 12 13 14 15 15 15 15 16 17 17 16 15 16 15 16 17 17 16 16 16 16 15 16 16 17 17 17 17 17 16 16 17 17 18 18 18 19 19 19
13 13 13 12 12 12 14 15 15 15 15 16 16 17 17 17 16 16 17 17 17 17 17 16 17 17 17 17 18 18 18 18 18 18 18 18 19 19 19 20 20 20 21
13 13 13 13 13 13 14 14 14 14 15 16 16 17 17 17 17 17 18 18 18 18 17 17 18 18 19 18 19 19 19 19 19 19 19 19 19 20 20 21 21 21 22
13 12 13 13 14 14 13 14 15 15 16 16 16 16 17 17 17 17 17 17 17 18 19 19 19 19 20 19 19 19 19 20 20 20 20 20 20 20 20 20 21 21 23
13 13 13 13 13 13 13 14 15 16 17 17 17 16 16 17 18 18 18 17 17 18 18 19 19 19 19 20 20 20 20 20 20 20 21 20 20 20 21 22 22 23 23
14 14 14 14 13 14 14 14 14 15 16 17 18 17 17 17 17 18 18 17 17 17 18 18 18 18 19 19 19 20 19 19 19 19 20 20 21 21 22 23 24 23 23
15 15 14 15 14 14 14 15 15 15 15 17 18 18 18 18 18 18 17 17 17 17 17 17 18 18 18 19 20 20 20 20 20 20 20 20 21 22 23 23 24 24 25
16 16 15 15 15 15 15 15 16 16 17 17 17 17 18 18 18 18 17 17 17 17 17 17 17 17 18 19 20 20 20 20 21 21 21 21 22 23 24 24 25 25 25
Wind_Direction
249 250 249 251 249 250 250 249 246 246 247 247 247 248 249 250 249 250 249 251 255 261 262 264 268 274 280 285 287 289 290 290 295 296 299 304 307 304 305 305 305 305 301
251 251 251 251 249 249 248 247 249 250 247 246 246 247 248 249 251 252 251 250 253 257 260 264 268 274 279 281 282 286 291 293 297 297 302 307 308 305 303 305 306 306 302
253 250 249 250 249 247 246 245 246 249 246 244 245 246 247 248 252 253 252 252 252 257 260 261 264 271 275 280 283 287 290 293 296 295 299 304 308 306 307 307 307 306 304
260 256 254 253 248 247 247 248 247 246 244 243 245 247 246 247 250 252 252 252 255 258 262 261 264 268 270 275 281 284 287 291 293 295 295 298 303 299 304 306 307 305 303
259 256 257 256 251 247 245 247 246 245 245 243 244 249 250 250 251 251 251 252 255 258 262 265 264 266 269 273 276 280 284 288 289 291 293 296 299 298 301 301 303 301 301
259 257 257 256 253 250 245 245 246 244 242 242 245 247 248 251 253 254 254 255 255 257 261 264 266 265 267 270 275 278 281 284 288 290 289 293 296 296 297 298 300 300 300
260 259 257 255 251 251 248 247 248 243 239 240 245 246 246 251 254 256 256 255 255 257 260 263 264 263 265 267 271 273 278 281 286 288 288 290 293 294 294 295 298 300 299
261 260 257 251 250 249 249 249 248 243 240 241 245 248 248 250 253 253 254 255 255 255 258 261 263 262 264 265 270 273 279 282 285 286 287 288 288 288 288 292 296 299 298
267 265 258 251 249 250 249 250 246 245 244 244 246 249 250 250 252 253 253 258 254 253 255 257 259 259 259 262 269 275 281 282 282 283 287 288 286 283 286 291 295 298 296
268 264 257 252 250 250 249 247 246 245 245 247 248 251 251 251 251 251 253 256 255 255 255 257 260 258 258 260 265 273 277 277 278 281 286 286 286 284 286 294 298 301 302
264 257 255 253 250 249 246 244 243 245 246 246 247 249 251 253 254 255 256 257 255 256 256 258 259 258 258 256 262 270 272 271 273 279 280 280 284 284 284 287 292 297 300
261 256 252 251 250 248 245 243 241 245 246 246 246 249 251 254 256 255 255 255 254 254 255 259 258 258 258 259 260 264 268 267 269 273 273 275 280 284 284 287 289 294 297
258 256 252 248 249 247 245 244 245 247 248 249 249 250 251 252 254 252 249 249 251 254 256 258 260 260 258 259 258 260 264 266 267 266 269 276 279 280 282 288 292 293 297
256 255 254 251 249 247 247 248 248 249 249 249 249 249 250 252 253 250 248 248 250 252 255 258 262 262 258 258 255 256 259 261 263 266 270 276 281 284 284 290 296 296 297
255 252 253 255 251 247 247 251 252 249 248 249 249 248 249 250 251 250 249 248 248 249 255 258 260 259 257 257 256 256 258 261 265 267 270 277 282 284 286 291 295 295 296
259 254 252 254 253 251 250 252 253 251 249 248 249 248 248 249 250 249 248 248 247 250 254 259 256 256 255 254 253 255 259 261 267 272 277 282 286 287 290 294 295 295 296
261 254 251 252 253 252 254 255 253 252 251 251 251 250 251 251 252 251 250 248 248 251 255 255 255 257 254 254 255 259 261 263 269 274 276 281 286 289 292 293 295 295 296
256 255 254 252 253 252 253 251 248 248 250 251 252 251 253 253 255 253 251 249 249 251 254 254 254 255 255 255 258 261 262 265 268 273 275 278 284 287 288 290 292 294 294
255 253 252 253 254 252 249 247 247 247 248 250 251 252 253 255 256 255 254 250 249 251 254 253 253 255 257 258 260 264 265 265 269 271 274 278 283 287 288 290 292 293 293
254 253 251 253 254 254 251 249 249 249 249 250 251 250 248 254 256 258 254 250 250 252 253 254 255 256 257 260 261 265 266 266 268 269 273 278 282 286 288 291 293 294 295
252 253 253 254 257 256 254 255 256 256 254 252 252 252 252 254 256 258 256 252 253 251 253 257 259 260 260 262 262 264 266 266 267 269 274 278 282 286 288 290 293 295 297
250 252 253 254 255 256 255 257 258 258 257 255 254 255 255 256 256 256 254 252 251 252 255 259 261 262 263 262 264 265 266 266 266 270 275 277 280 285 288 290 293 295 296
253 251 250 253 256 257 258 259 258 258 257 256 256 260 260 261 260 257 254 253 253 255 256 258 261 261 261 263 264 267 269 267 268 271 275 277 280 284 288 290 293 295 295
254 255 253 254 257 258 260 261 261 260 257 254 255 259 259 262 262 260 256 253 256 258 259 259 261 261 262 262 264 267 269 268 271 274 276 279 282 285 289 290 292 294 295
254 256 259 258 258 259 261 262 264 263 259 255 256 258 259 260 262 261 258 254 256 259 260 261 262 261 261 263 265 267 268 268 270 274 278 281 283 287 290 291 293 293 295
254 255 257 259 258 258 260 262 263 263 261 259 259 259 259 259 261 261 257 254 257 260 261 262 263 263 263 264 267 267 269 271 273 277 280 283 285 288 291 292 292 293 295
Height
5865 5865 5866 5867 5867 5868 5868 5869 5870 5871 5871 5872 5873 5873 5874 5875 5875 5876 5876 5876 5877 5877 5877 5877 5876 5876 5876 5875 5874 5874 5873 5872 5871 5871 5869 5868 5867 5865 5864 5862 5861 5860 5859
5861 5862 5863 5864 5864 5865 5865 5866 5867 5867 5868 5869 5870 5870 5871 5872 5872 5873 5873 5873 5874 5874 5874 5874 5874 5874 5873 5873 5872 5871 5871 5870 5869 5868 5867 5866 5865 5863 5862 5861 5859 5858 5856
5858 5858 5859 5860 5861 5862 5862 5863 5864 5864 5865 5866 5867 5867 5868 5869 5869 5870 5870 5871 5871 5871 5872 5872 5871 5871 5871 5870 5870 5869 5869 5868 5867 5866 5866 5864 5863 5861 5860 5859 5857 5856 5854
5855 5855 5856 5856 5857 5858 5859 5860 5861 5861 5862 5863 5864 5864 5865 5866 5866 5867 5867 5868 5868 5868 5868 5869 5869 5868 5868 5868 5867 5867 5866 5866 5865 5864 5863 5862 5861 5860 5858 5857 5855 5854 5852
5851 5852 5852 5853 5854 5855 5856 5856 5857 5858 5859 5860 5861 5862 5862 5863 5863 5864 5864 5864 5865 5865 5865 5865 5866 5866 5865 5865 5865 5864 5864 5863 5863 5862 5861 5860 5859 5857 5856 5855 5854 5852 5851
5848 5848 5849 5850 5850 5851 5852 5853 5854 5855 5856 5857 5858 5858 5859 5860 5860 5860 5861 5861 5861 5862 5862 5862 5862 5862 5862 5862 5862 5862 5861 5860 5860 5859 5858 5857 5856 5855 5854 5853 5851 5850 5849
5844 5845 5845 5846 5847 5848 5849 5850 5850 5851 5852 5853 5854 5855 5855 5856 5856 5857 5857 5858 5858 5858 5859 5859 5859 5859 5859 5859 5859 5858 5858 5857 5857 5856 5855 5854 5853 5852 5851 5850 5849 5847 5846
5840 5841 5841 5842 5843 5844 5845 5846 5847 5848 5849 5849 5850 5851 5852 5852 5853 5853 5854 5854 5855 5855 5855 5855 5855 5855 5855 5856 5856 5855 5855 5854 5854 5853 5853 5852 5851 5850 5849 5848 5847 5845 5844
5836 5837 5837 5838 5839 5840 5841 5842 5843 5844 5845 5846 5847 5847 5848 5849 5849 5849 5850 5850 5851 5851 5851 5852 5852 5852 5852 5852 5852 5852 5852 5851 5851 5850 5849 5849 5848 5847 5846 5845 5844 5843 5841
5832 5833 5833 5834 5835 5836 5837 5837 5839 5840 5840 5842 5843 5843 5844 5845 5845 5846 5846 5847 5847 5847 5848 5848 5848 5848 5848 5848 5849 5849 5848 5848 5848 5847 5846 5846 5845 5844 5843 5842 5841 5840 5838
5829 5829 5829 5830 5830 5831 5833 5833 5835 5836 5837 5838 5838 5839 5840 5841 5841 5842 5842 5843 5843 5844 5844 5844 5844 5844 5844 5845 5845 5845 5845 5845 5845 5844 5843 5842 5842 5841 5840 5839 5838 5837 5835
5824 5825 5826 5826 5827 5827 5828 5829 5830 5831 5832 5833 5834 5835 5836 5837 5837 5838 5838 5839 5839 5840 5840 5840 5840 5841 5841 5841 5841 5842 5841 5841 5841 5841 5840 5839 5839 5838 5837 5836 5835 5834 5833
5820 5821 5822 5822 5823 5824 5824 5825 5826 5827 5828 5829 5830 5831 5832 5833 5833 5833 5834 5835 5835 5836 5836 5837 5837 5837 5837 5837 5837 5838 5838 5838 5837 5837 5837 5836 5835 5835 5834 5833 5832 5831 5829
5816 5817 5818 5818 5819 5820 5821 5821 5822 5823 5824 5825 5826 5826 5827 5828 5829 5829 5830 5831 5831 5832 5833 5833 5833 5833 5833 5833 5834 5834 5834 5834 5834 5834 5834 5833 5833 5832 5831 5830 5829 5827 5826
5813 5813 5814 5815 5816 5816 5817 5817 5818 5818 5819 5820 5821 5822 5823 5824 5824 5825 5826 5826 5827 5828 5829 5829 5829 5829 5829 5830 5830 5830 5831 5831 5831 5831 5830 5830 5829 5828 5828 5827 5826 5824 5823
5808 5809 5810 5811 5811 5812 5813 5813 5814 5814 5815 5816 5816 5817 5818 5819 5820 5821 5821 5822 5823 5824 5824 5825 5825 5825 5825 5826 5826 5827 5827 5827 5827 5827 5827 5826 5825 5825 5824 5823 5822 5820 5819
5804 5805 5805 5806 5807 5808 5809 5809 5810 5810 5811 5812 5812 5813 5814 5815 5816 5816 5817 5818 5819 5820 5820 5820 5821 5821 5821 5822 5822 5822 5823 5823 5823 5824 5823 5823 5822 5821 5820 5819 5818 5816 5814
5801 5801 5801 5803 5804 5804 5805 5805 5806 5806 5807 5808 5808 5809 5810 5811 5811 5812 5813 5814 5815 5815 5816 5816 5817 5817 5818 5818 5818 5818 5819 5819 5819 5819 5819 5819 5818 5817 5816 5815 5813 5812 5810
5797 5798 5799 5799 5800 5800 5801 5801 5802 5803 5803 5804 5805 5806 5806 5807 5807 5808 5809 5809 5810 5811 5811 5812 5812 5813 5814 5814 5814 5814 5814 5814 5815 5815 5815 5814 5813 5812 5811 5810 5809 5807 5805
5793 5793 5794 5795 5796 5797 5797 5798 5798 5799 5799 5800 5801 5801 5802 5803 5803 5804 5804 5805 5805 5806 5807 5807 5808 5809 5809 5809 5810 5810 5810 5810 5810 5810 5810 5809 5808 5807 5806 5805 5803 5801 5800
5788 5789 5790 5791 5792 5792 5793 5794 5795 5795 5795 5796 5796 5797 5798 5798 5799 5799 5799 5800 5801 5801 5802 5802 5803 5804 5804 5804 5805 5805 5805 5805 5805 5805 5804 5804 5803 5802 5801 5799 5797 5796 5794
5784 5785 5786 5787 5788 5788 5789 5790 5790 5791 5791 5791 5792 5792 5793 5793 5794 5794 5795 5795 5796 5796 5797 5798 5798 5798 5799 5799 5799 5799 5799 5799 5799 5799 5799 5798 5797 5796 5795 5794 5792 5790 5788
5781 5781 5782 5783 5784 5784 5785 5785 5786 5786 5786 5786 5787 5788 5788 5789 5789 5789 5790 5790 5791 5791 5792 5792 5793 5793 5793 5793 5794 5794 5794 5794 5794 5794 5793 5792 5792 5791 5789 5788 5786 5784 5782
5776 5777 5778 5779 5780 5780 5781 5781 5781 5781 5782 5782 5783 5783 5784 5784 5784 5784 5785 5785 5786 5786 5786 5787 5787 5787 5788 5788 5788 5788 5788 5788 5788 5788 5787 5787 5786 5785 5783 5782 5780 5777 5775
5771 5773 5774 5774 5775 5776 5776 5777 5777 5777 5778 5778 5778 5779 5779 5779 5779 5779 5780 5780 5781 5781 5781 5782 5782 5782 5782 5783 5783 5783 5783 5783 5783 5782 5782 5781 5780 5779 5777 5775 5773 5771 5768
5767 5768 5769 5770 5770 5771 5772 5772 5772 5772 5773 5773 5773 5774 5774 5775 5775 5775 5775 5775 5776 5776 5776 5776 5777 5777 5777 5777 5777 5777 5777 5777 5777 5776 5776 5775 5774 5772 5770 5768 5766 5764 5762